Weather History for Roanoke, VA

Change the Weather History Date:

Thursday, November 18, 2010

  Actual Average Record
Temperature  
Mean Temperature 44 °F 47 °F  
Max Temperature 53 °F 58 °F 81 °F (1931)
Min Temperature 35 °F 37 °F 18 °F (1914)
Degree Days  
Heating Degree Days 21 18  
Month to date heating degree days 296 267  
Since 1 July heating degree days 470 564  
Cooling Degree Days 0 0  
Month to date cooling degree days 0 0  
Year to date cooling degree days 1677 1207  
Moisture  
Dew Point 35 °F    
Average Humidity 70    
Maximum Humidity 89    
Minimum Humidity 50    
Precipitation  
Precipitation T in 0.12 in 0.88 in (1929)
Month to date precipitation 1.76 2.05  
Year to date precipitation 39.72 36.96  
Snow  
Snow 0.00 in - - ()
Month to date snowfall 0.0  
Since 1 July snowfall 0.0  
Since 1 September snowfall 0.0  
Snow Depth 0.00 in    
Sea Level Pressure  
Sea Level Pressure 30.21 in    
Wind  
Wind Speed 6 mph (WNW)    
Max Wind Speed 21 mph    
Max Gust Speed 26 mph    
Visibility 10 miles    
Events Rain    
T = Trace of Precipitation, MM = Missing Value Source: NWS Daily Summary

Daily Weather History Graph

Daily Weather History Graph

Search for Another Location

Airport:

Trip Planner

Search our weather history database for the weather conditions in past years. The results will help you decide how hot, cold, wet, or windy it might be!

Date:

Astronomy

Nov. 18, 2010 Rise Set
Actual Time 7:02 AM EST 5:07 PM EST
Civil Twilight 6:34 AM EST 5:35 PM EST
Nautical Twilight 6:02 AM EST 6:07 PM EST
Astronomical Twilight 5:31 AM EST 6:38 PM EST
Moon 3:04 PM EST (11/18) 4:00 AM EST (11/18)
Length of Visible Light 11h 01m
Length of Day
10h 05m
Waxing Gibbous, 91% of the Moon is Illuminated
Nov 18
Waxing Gibbous
Nov 21
Full
Nov 28
Last Quarter
Dec 5
New
Dec 13
First Quarter

Hourly Weather History & Observations

Time (EST) Temp. Windchill Dew Point Humidity Pressure Visibility Wind Dir Wind Speed Gust Speed Precip Events Conditions
12:54 AM 41.0 °F 36.4 °F 32.0 °F 70% 30.17 in 10.0 mi NW 6.9 mph - N/A   Clear
1:54 AM 43.0 °F - 32.0 °F 65% 30.18 in 10.0 mi Calm Calm - N/A   Partly Cloudy
2:54 AM 39.0 °F - 32.0 °F 76% 30.19 in 10.0 mi Calm Calm - N/A   Clear
3:54 AM 37.9 °F 35.5 °F 32.0 °F 79% 30.17 in 10.0 mi South 3.5 mph - N/A   Clear
4:54 AM 36.0 °F - 32.0 °F 86% 30.19 in 10.0 mi Calm Calm - N/A   Clear
5:54 AM 35.1 °F - 32.0 °F 89% 30.21 in 10.0 mi Calm Calm - N/A   Clear
6:54 AM 37.0 °F - 33.1 °F 86% 30.22 in 10.0 mi Calm Calm - N/A   Scattered Clouds
7:54 AM 41.0 °F 36.4 °F 35.1 °F 79% 30.24 in 10.0 mi West 6.9 mph - N/A   Scattered Clouds
8:54 AM 42.1 °F 40.2 °F 35.1 °F 76% 30.25 in 10.0 mi West 3.5 mph - N/A   Scattered Clouds
9:54 AM 46.0 °F 43.9 °F 36.0 °F 68% 30.24 in 10.0 mi West 4.6 mph - N/A   Mostly Cloudy
10:54 AM 48.9 °F - 36.0 °F 61% 30.23 in 10.0 mi West 6.9 mph - N/A   Scattered Clouds
11:54 AM 50.0 °F - 32.0 °F 50% 30.22 in 10.0 mi WNW 11.5 mph 21.9 mph N/A   Mostly Cloudy
12:54 PM 48.0 °F - 36.0 °F 63% 30.21 in 10.0 mi West 11.5 mph - 0.00 in Rain Light Rain
1:54 PM 48.9 °F - 37.0 °F 64% 30.19 in 10.0 mi Calm Calm - 0.00 in   Overcast
2:54 PM 51.1 °F - 36.0 °F 56% 30.17 in 10.0 mi WNW 10.4 mph - N/A   Mostly Cloudy
3:54 PM 50.0 °F - 35.1 °F 57% 30.17 in 10.0 mi NW 11.5 mph 25.3 mph N/A   Scattered Clouds
4:54 PM 50.0 °F - 36.0 °F 59% 30.18 in 10.0 mi NW 16.1 mph 24.2 mph N/A   Scattered Clouds
5:54 PM 48.0 °F - 36.0 °F 63% 30.19 in 10.0 mi NW 12.7 mph - N/A   Mostly Cloudy
6:54 PM 50.0 °F - 36.0 °F 59% 30.22 in 10.0 mi WNW 12.7 mph - N/A   Mostly Cloudy
7:54 PM 48.9 °F - 36.0 °F 61% 30.23 in 10.0 mi WNW 10.4 mph - N/A   Mostly Cloudy
8:54 PM 48.0 °F - 37.0 °F 66% 30.25 in 10.0 mi WNW 8.1 mph - N/A   Overcast
9:54 PM 46.9 °F - 36.0 °F 66% 30.25 in 10.0 mi NNW 4.6 mph - N/A   Overcast
10:54 PM 46.0 °F 43.1 °F 35.1 °F 66% 30.26 in 10.0 mi NW 5.8 mph - N/A   Overcast
11:54 PM 45.0 °F 41.2 °F 34.0 °F 65% 30.27 in 10.0 mi NNW 6.9 mph - N/A   Mostly Cloudy